Evenes, Norway

1:54 AM CEST on August 22, 2017 (GMT +0200)
Evenes

Weather History for ENEV - January, 2016

Change the Weather History Date:

Friday, January 1, 2016

  Actual Average Record
Temperature  
Mean Temperature 40 °F -  
Max Temperature 44 °F 27 °F 46 °F (2016)
Min Temperature 35 °F 18 °F -2 °F (2003)
Degree Days  
Heating Degree Days 24    
Moisture  
Dew Point 25 °F    
Average Humidity 46    
Maximum Humidity 87    
Minimum Humidity 20    
Precipitation  
Precipitation 0.00 in - - ()
Sea Level Pressure  
Sea Level Pressure 30.06 in    
Wind  
Wind Speed 16 mph ()    
Max Wind Speed 29 mph    
Max Gust Speed -    
Visibility 6.2 miles    
Events Rain    
Averages and records for this station are not official NWS values.
T = Trace of Precipitation, MM = Missing Value Source: Averaged Metar Reports

Daily Weather History Graph

Daily Weather History Graph

Search for Another Location

Airport or City:

Trip Planner

Search our weather history database for the weather conditions in past years. The results will help you decide how hot, cold, wet, or windy it might be!

Date:

Astronomy

Jan. 01, 2016 Rise Set
Actual Time 11:24 AM CET 12:29 PM CET
Civil Twilight 9:18 AM CET 2:35 PM CET
Nautical Twilight 7:46 AM CET 4:06 PM CET
Astronomical Twilight 6:34 AM CET 5:19 PM CET
Moon No Moon Rise 11:16 AM CET (1/1)
Length of Visible Light 5h 17m
Length of Day
1h 04m
Waning Gibbous, 57% of the Moon is Illuminated
Jan 1
Waning Gibbous
Jan 2
Last Quarter
Jan 10
New
Jan 17
First Quarter
Jan 24
Full

Hourly Weather History & Observations

Time (CET) Temp. Windchill Dew Point Humidity Pressure Visibility Wind Dir Wind Speed Gust Speed Precip Events Conditions
12:00 AM 47 °F - 19 °F 20% 29.90 in - SSE 29.1 mph - -  
12:20 AM 46.4 °F 37.4 °F 19.4 °F 34% 29.89 in 6.2 mi SSE 28.8 mph - N/A   Unknown
12:50 AM 46.4 °F 37.7 °F 17.6 °F 32% 29.89 in 6.2 mi SSE 26.5 mph - N/A   Unknown
1:00 AM 45 °F - 19 °F 22% 29.90 in - SSE 24.6 mph - -  
1:20 AM 44.6 °F 35.9 °F 19.4 °F 37% 29.89 in 6.2 mi SSE 23.0 mph - N/A   Unknown
1:50 AM 44.6 °F 36.1 °F 19.4 °F 37% 29.89 in 6.2 mi SSE 21.9 mph - N/A   Unknown
2:00 AM 44 °F - 20 °F 26% 29.92 in - SSE 17.9 mph - -  
2:20 AM 44.6 °F 36.4 °F 19.4 °F 37% 29.89 in 6.2 mi SSE 20.7 mph - N/A   Unknown
2:50 AM 44.6 °F 36.4 °F 19.4 °F 37% 29.89 in 6.2 mi South 20.7 mph - N/A   Unknown
3:00 AM 44 °F - 21 °F 26% 29.92 in - South 20.1 mph - -  
3:20 AM 44.6 °F 36.4 °F 21.2 °F 39% 29.92 in 6.2 mi SSW 20.7 mph - N/A   Unknown
3:50 AM 42.8 °F 35.8 °F 21.2 °F 42% 29.92 in 6.2 mi South 13.8 mph - N/A   Unknown
4:00 AM 43 °F - 22 °F 30% 29.96 in - SSE 13.4 mph - -  
4:20 AM 44.6 °F 38.1 °F 21.2 °F 39% 29.95 in 6.2 mi South 13.8 mph - N/A   Unknown
4:50 AM 42.8 °F - 23.0 °F 46% 29.98 in 6.2 mi South 1.2 mph - N/A   Partly Cloudy
5:00 AM 42 °F - 23 °F 34% 29.99 in - SE 8.9 mph - -  
5:20 AM 42.8 °F 39.3 °F 23.0 °F 46% 29.98 in 6.2 mi SSE 5.8 mph - N/A   Unknown
5:50 AM 41.0 °F 34.3 °F 24.8 °F 53% 29.98 in 6.2 mi South 11.5 mph - N/A   Partly Cloudy
6:00 AM 42 °F - 26 °F 39% 30.00 in - SE 8.9 mph - -  
6:20 AM 41.0 °F 34.3 °F 26.6 °F 57% 29.98 in 6.2 mi SE 11.5 mph - N/A   Scattered Clouds
6:50 AM 41.0 °F 31.9 °F 26.6 °F 57% 30.01 in 6.2 mi South 19.6 mph - N/A   Partly Cloudy
7:00 AM 40 °F - 26 °F 46% 30.02 in - South 13.4 mph - -  
7:20 AM 41.0 °F 34.3 °F 26.6 °F 57% 30.01 in 6.2 mi South 11.5 mph - N/A   Unknown
7:50 AM 42.8 °F 37.0 °F 24.8 °F 49% 30.01 in 6.2 mi SSE 10.4 mph - N/A   Partly Cloudy
8:00 AM 41 °F - 25 °F 40% 30.03 in - SSE 20.1 mph - -  
8:20 AM 42.8 °F 32.9 °F 24.8 °F 49% 29.98 in 6.2 mi South 26.5 mph - N/A   Scattered Clouds
8:50 AM 42.8 °F 36.2 °F 24.8 °F 49% 30.01 in 6.2 mi SSE 12.7 mph - N/A   Partly Cloudy
9:00 AM 43 °F - 25 °F 36% 30.04 in - South 17.9 mph - -  
9:20 AM 42.8 °F 34.8 °F 24.8 °F 49% 30.01 in 6.2 mi South 17.3 mph - N/A   Unknown
9:50 AM 41.0 °F 32.8 °F 26.6 °F 57% 30.04 in 6.2 mi South 16.1 mph - N/A   Unknown
10:00 AM 43 °F - 25 °F 37% 30.05 in - SSE 13.4 mph - -  
10:20 AM 42.8 °F 34.5 °F 26.6 °F 53% 30.04 in - South 18.4 mph - N/A   Clear
10:50 AM 42.8 °F 35.4 °F 24.8 °F 49% 30.04 in 6.2 mi South 15.0 mph - N/A   Partly Cloudy
11:00 AM 43 °F - 25 °F 37% 30.05 in - South 20.1 mph - -  
11:20 AM 42.8 °F 34.3 °F 26.6 °F 53% 30.04 in 6.2 mi South 19.6 mph - N/A   Scattered Clouds
11:50 AM 44.6 °F 37.8 °F 24.8 °F 46% 30.04 in - SSE 15.0 mph - N/A   Clear
12:00 PM 42 °F - 26 °F 40% 30.06 in - SSE 17.9 mph - -  
12:50 PM 42.8 °F 35.4 °F 24.8 °F 49% 30.04 in 6.2 mi SSE 15.0 mph - N/A   Unknown
1:00 PM 43 °F - 25 °F 36% 30.07 in - SSE 20.1 mph - -  
1:20 PM 41.0 °F 31.6 °F 24.8 °F 53% 30.06 in 6.2 mi South 20.7 mph - N/A   Unknown
1:50 PM 42.8 °F 36.2 °F 24.8 °F 49% 30.06 in 6.2 mi SSE 12.7 mph - N/A   Unknown
2:00 PM 43 °F - 26 °F 37% 30.08 in - SSE 17.9 mph - -  
2:20 PM 42.8 °F 34.8 °F 24.8 °F 49% 30.06 in 6.2 mi SSE 17.3 mph - N/A   Unknown
2:50 PM 42.8 °F 35.1 °F 26.6 °F 53% 30.06 in 6.2 mi South 16.1 mph - N/A   Unknown
3:00 PM 42 °F - 26 °F 41% 30.10 in - South 17.9 mph - -  
3:20 PM 41.0 °F 32.2 °F 26.6 °F 57% 30.09 in 6.2 mi South 18.4 mph - N/A   Unknown
3:50 PM 41.0 °F 33.9 °F 26.6 °F 57% 30.09 in 6.2 mi South 12.7 mph - N/A   Unknown
4:00 PM 40 °F - 26 °F 46% 30.12 in - South 11.2 mph - -  
4:20 PM 41.0 °F 33.1 °F 26.6 °F 57% 30.09 in 6.2 mi South 15.0 mph - N/A   Unknown
4:50 PM 41.0 °F 33.5 °F 26.6 °F 57% 30.12 in - SSE 13.8 mph - N/A   Clear
5:00 PM 42 °F - 26 °F 41% 30.14 in - SSE 11.2 mph - -  
5:50 PM 42.8 °F 37.0 °F 24.8 °F 49% 30.15 in - SW 10.4 mph - N/A   Clear
6:00 PM 42 °F - 26 °F 39% 30.18 in - SSW 11.2 mph - -  
6:50 PM 42.8 °F 36.2 °F 24.8 °F 49% 30.18 in 6.2 mi South 12.7 mph - N/A   Scattered Clouds
7:00 PM 41 °F - 25 °F 40% 30.21 in - South 2.2 mph - -  
7:50 PM 41.0 °F 38.0 °F 24.8 °F 53% 30.21 in - SE 4.6 mph - N/A   Clear
8:00 PM 41 °F - 25 °F 39% 30.23 in - South 11.2 mph - -  
8:50 PM 41.0 °F 32.8 °F 26.6 °F 57% 30.24 in - South 16.1 mph - N/A   Clear
9:00 PM 40 °F - 26 °F 44% 30.27 in - South 17.9 mph - -  
9:50 PM 41.0 °F 34.3 °F 24.8 °F 53% 30.27 in 6.2 mi South 11.5 mph - N/A   Mostly Cloudy
10:00 PM 40 °F - 29 °F 53% 30.31 in - South 13.4 mph - -  
10:50 PM 39.2 °F 33.6 °F 30.2 °F 70% 30.33 in 5.0 mi South 8.1 mph - N/A Rain Light Rain
11:00 PM 37 °F - 31 °F 73% 30.35 in - ESE 6.7 mph - -  
11:20 PM 37.4 °F 32.1 °F 32.0 °F 81% 30.33 in 6.2 mi ESE 6.9 mph - N/A Rain Light Rain
11:50 PM 35.6 °F - 32.0 °F 87% 30.36 in 6.2 mi SW 1.2 mph - N/A   Light Drizzle